OBJECT H, 66002

Orbit data source: Space-Track

You're viewing an Uncataloged Satellite

Recently launched and/or uncataloged satellites may have evolving metadata. Metadata may include but not limited to: Owner, Maufacturer, Bus, Motor, and Mission.

OBJECT H, 66002 is a satellite owned by Zhongguo Xingwang (CN) in LEO that was launched on Thu, 16 Oct 2025 UTC via a CHANG ZHENG 8A launch vehicle from the Wenchang Satellite Launch Center (WSC). Unknown objects in Earth's orbit typically refer to objects detected orbiting the Earth but have not yet been identified or cataloged. These objects could be anything from previously untracked satellites, spent rocket stages, debris from satellite collisions, or even natural meteoroids temporarily captured by Earth's gravity.

Loading next visibility...
Identifier
66002, 2025-231H
Orbit
LEO
Country
Flag of CNCN / PRC
Related business
Manufacturer
CAST
Mission
Operational spacecraft
Bus & Motor
GUOWANG C, Unknown motor
Mass
~800 kg wet, ~800 kg dry
Launch date (UTC)
2025-10-16 (2 months ago)
Launch vehicle
CHANG ZHENG 8A
Launch site
Wenchang Satellite Launch Center (WSC)
Object type
Unknown
Shape & HBR
Unknown shape, 1.1 m
Radar Cross Section
RCS unknown

Expand to show TLE details & history
Last TLE update: 3 days ago

TLE from 3 days ago
0 OBJECT H
1 66002U 25231H   25338.48366916 -.00000043  00000-0  10304-3 0  9990
2 66002  50.0121 158.9845 0001566 321.7891  38.2889 13.73851730  6916
Epoch: 2025-12-04T11:36Z
TLE epoch observation values (Epoch: 2025-12-04T11:36:29.015Z)
Latitude
-0.00005°
Longitude
-88.67589°
Altitude
985.388 km
Speed
7.361 km/s
True Right ascension
10h 35m 56s
True Declination
0° 00' 00"
Sunlit
Object was in daylight at epoch
Visualization orbit readout
Latitude
Unknown
Longitude
Unknown
Altitude
Unknown
Speed
Unknown
Apparent Right ascension
Unknown
Apparent Declination
Unknown
Sunlit
N/A
Visualization observer readout
Local Sidereal Time
12:43:40
Azimuth
Unknown
Elevation
Unknown
Doppler factor
Unknown
Orbital elements
Apogee altitude
987.647 km
Perigee altitude
985.341 km
Semi-major axis
7,364.631 km
Eccentricity
0.00016
Inclination
50.0121°
RAAN
158.9845°
Arg. of periapsis
321.7891°
True anomaly
38.30002°
Mean anomaly
38.2889°
Eccentric anomaly
38.29446°
Mean motion
3.43413 °/min
Orbital period
104.83 mins
BSTAR
0.00010304
Loading maneuver chart data...
Computing Atmospheric mass density...
Loading historical data...
Loading historical data...
Loading historical data...
Loading historical data...
Loading historical data...
Loading historical data...
Loading historical data...

Documentation

Showing up to 5 results
|